Regional Weather Roundup
Issued by NWS

Home | Current Version | Previous Version | Text Only | Print | Product List | Glossary On
Versions: 1 2 3 4 5 6 7 8 9 10 11 12 13 14 15 16 17 18 19 20 21 22 23 24 25 26 27 28 29 30 31 32 33 34 35 36 37 38 39 40 41 42 43 44 45 46 47 48 49 50
000
ASUS43 KDTX 270010
RWRMI
MICHIGAN HOURLY REGIONAL WEATHER ROUNDUP
NATIONAL WEATHER SERVICE DETROIT/PONTIAC MI
700 PM EST WED NOV 26 2014

NOTE: "FAIR" INDICATES FEW OR NO CLOUDS BELOW 12,000 FEET WITH NO
SIGNIFICANT WEATHER AND/OR OBSTRUCTION TO VISIBILITY.

MIZ047>049-052>055-059>063-066>070-074>076-081>083-270100-
SOUTHEAST LOWER MICHIGAN

CITY           SKY/WX    TMP DP  RH WIND       PRES   REMARKS
ADRIAN         CLOUDY    31  24  75 N7        30.08F
6HR MIN TEMP:  30; 6HR MAX TEMP:  31;

ALMA           CLOUDY    29  24  82 N6        30.13S
6HR MIN TEMP:  29; 6HR MAX TEMP:  30;

ANN ARBOR      CLOUDY    32  24  72 N8        30.08F
BAD AXE        CLOUDY    29  27  92 N7        30.12S
6HR MIN TEMP:  29; 6HR MAX TEMP:  31;

DETROIT CITY   CLOUDY    35  23  61 NE6       30.09F
6HR MIN TEMP:  35; 6HR MAX TEMP:  36;

DETROIT        CLOUDY    34  23  64 N7        30.08F
6HR MIN TEMP:  33; 6HR MAX TEMP:  34; 6HR PCP: TRACE;

FLINT          CLOUDY    31  24  75 N8        30.11S
6HR MIN TEMP:  31; 6HR MAX TEMP:  34;

GROSSE ILE     CLOUDY    34  28  80 N3        30.07F
HILLSDALE      CLOUDY    29  24  82 N3        30.06S
HOWELL         CLOUDY    30  23  75 N5        30.08F
6HR MIN TEMP:  30; 6HR MAX TEMP:  32;


CITY           SKY/WX    TMP DP  RH WIND       PRES   REMARKS
JACKSON        CLOUDY    29  24  82 N5        30.08S
6HR MIN TEMP:  29; 6HR MAX TEMP:  31;

LAMBERTVILLE   CLOUDY    32  27  80 CALM      30.08F
LANSING        CLOUDY    29  21  72 N6        30.11S
6HR MIN TEMP:  29; 6HR MAX TEMP:  31; 6HR PCP: TRACE;

LAPEER         NOT AVBL
MASON          CLOUDY    30  24  78 N3        30.09S
MONROE         CLOUDY    32  27  80 CALM      30.07S
MT. CLEMENS    CLOUDY    32  25  75 N8        30.07F
6HR MIN TEMP:  32; 6HR MAX TEMP:  35;

PONTIAC        FLURRIES  30  22  72 N8        30.07F
6HR MIN TEMP:  30; 6HR MAX TEMP:  32; 6HR PCP: TRACE;

PORT HOPE        N/A     31  28  89 W9        30.11S
6HR MIN TEMP:  31; 6HR MAX TEMP:  33;

PORT HURON     CLOUDY    32  25  74 NW3       30.09F
TRI CITIES     CLOUDY    31  24  75 N8        30.13F
6HR MIN TEMP:  31; 6HR MAX TEMP:  32; 6HR PCP: TRACE;

YPSILANTI      CLOUDY    35  24  64 N6        30.09F
6HR MIN TEMP:  35; 6HR MAX TEMP:  37;

$$
MIZ043>046-050>051-056>058-064>065-071>073-077>080-270100-
SOUTHWEST LOWER MICHIGAN

CITY           SKY/WX    TMP DP  RH WIND       PRES   REMARKS
BATTLE CREEK   CLOUDY    29  21  72 N7        30.09F
6HR MIN TEMP:  28; 6HR MAX TEMP:  31; 6HR PCP: TRACE;

BENTON HARBOR  CLOUDY    25  19  78 CALM      30.12S
6HR MIN TEMP:  25; 6HR MAX TEMP:  28;

BIG RAPIDS     CLOUDY    28  24  82 CALM      30.11S
6HR MIN TEMP:  28; 6HR MAX TEMP:  29;

COLDWATER      CLOUDY    29  25  82 N6        30.08S
6HR MIN TEMP:  29; 6HR MAX TEMP:  31;

HOLLAND        CLOUDY    31  21  66 CALM      30.13S
6HR MIN TEMP:  30; 6HR MAX TEMP:  32;

GRAND RAPIDS   CLOUDY    29  21  72 N6        30.12S
6HR MIN TEMP:  29; 6HR MAX TEMP:  30; 6HR PCP: TRACE;

KALAMAZOO      CLOUDY    28  21  75 N7        30.10F
6HR MIN TEMP:  28; 6HR MAX TEMP:  29;

MARSHALL       CLOUDY    27  24  86 CALM      30.09S
MUSKEGON       CLOUDY    30  23  75 NE3       30.14S
6HR MIN TEMP:  30; 6HR MAX TEMP:  31; 6HR PCP: TRACE;

$$
MIZ016>042-270100-
NORTHERN LOWER MICHIGAN

CITY           SKY/WX    TMP DP  RH WIND       PRES   REMARKS
ALPENA         CLOUDY    26  23  88 NW7       30.14F
6HR MIN TEMP:  26; 6HR MAX TEMP:  28; 6HR PCP: TRACE;

BEAVER ISLAND  CLOUDY    29  24  82 NW3       30.14F
6HR MIN TEMP:  28; 6HR MAX TEMP:  30;

BELLAIRE       CLOUDY    28  26  93 CALM      30.14F
CADILLAC       CLOUDY    25  22  89 NE3       30.09S
CHARLEVOIX     CLOUDY    27  24  89 SE5       30.17S
6HR MIN TEMP:  27; 6HR MAX TEMP:  28;

FRANKFORT      CLOUDY    28  26  91 CALM      30.14S
GAYLORD        CLOUDY    24  20  84 CALM      30.10S
6HR MIN TEMP:  24; 6HR MAX TEMP:  25; 6HR PCP: TRACE;

GRAYLING       CLOUDY    24  22  95 CALM      30.11F
6HR MIN TEMP:  24; 6HR MAX TEMP:  28;

HARBOR SPRINGS CLOUDY    27  22  81 CALM      30.14F
HOUGHTON LAKE  CLOUDY    25  21  85 CALM      30.11F
6HR MIN TEMP:  25; 6HR MAX TEMP:  27;

MANISTEE       CLOUDY    28  25  86 CALM      30.14S
OSCODA         FLURRIES  27  26  95 N5        30.13F
PELLSTON       CLOUDY    27  23  85 CALM      30.14F
6HR MIN TEMP:  26; 6HR MAX TEMP:  27;

TRAVERSE CITY  FLURRIES  29  24  82 CALM      30.13F
6HR MIN TEMP:  29; 6HR MAX TEMP:  30; 6HR PCP: TRACE;

$$
MIZ007>008-015-270100-
EASTERN UPPER MICHIGAN

CITY           SKY/WX    TMP DP  RH WIND       PRES   REMARKS
KINROSS        CLOUDY    25  25 100 E6        30.14F
6HR MIN TEMP:  25; 6HR MAX TEMP:  27; 6HR PCP:  0.01;

MACKINAC ISLAN CLOUDY    28  22  76 S6        30.14F
6HR MIN TEMP:  27; 6HR MAX TEMP:  28;

NEWBERRY       CLOUDY    24  23  97 CALM      30.13F
6HR MIN TEMP:  22; 6HR MAX TEMP:  26;

S. S. MARIE    CLOUDY    26  23  88 E3        30.14S
6HR MIN TEMP:  26; 6HR MAX TEMP:  26; 6HR PCP:  0.03;

$$
MIZ004>006-011>014-085-270100-
CENTRAL UPPER MICHIGAN

CITY           SKY/WX    TMP DP  RH WIND       PRES   REMARKS
MANISTIQUE     MOCLDY    19  19  97 CALM      30.14F
6HR MIN TEMP:  18; 6HR MAX TEMP:  27;

ESCANABA       CLOUDY    19  16  86 CALM      30.15S
6HR MIN TEMP:  19; 6HR MAX TEMP:  25;

MENOMINEE      CLOUDY    21  16  79 CALM      30.16F
6HR MIN TEMP:  21; 6HR MAX TEMP:  25;

$$
MIZ001>003-009>011-084-270100-
WESTERN UPPER MICHIGAN

CITY           SKY/WX    TMP DP  RH WIND       PRES   REMARKS
IRON MOUNTAIN  CLOUDY    21  17  84 CALM      30.13S
6HR MIN TEMP:  16; 6HR MAX TEMP:  23; 6HR PCP: TRACE;

HOUGHTON       LGT SNOW  19  13  77 N12       30.18R
6HR MIN TEMP:  20; 6HR MAX TEMP:  24; 6HR PCP: TRACE;

COPPER HARBOR    N/A     24  20  84 NE22G28   30.20R
6HR MIN TEMP:  24; 6HR MAX TEMP:  28; 6HR PCP:  0.02;

IRONWOOD       CLOUDY    21  21 100 N6        30.18R VSB 1
6HR MIN TEMP:  19; 6HR MAX TEMP:  25;

$$

ABBREVIATIONS USED IN REMARKS
   TC - TEMPERATURE IN CELSIUS
  WCI - WIND CHILL INDEX
   HX - HEAT INDEX
  VSB - VISIBILITY



USA.gov is the U.S. government's official web portal to all federal, state and local government web resources and services.